[[{"header":{"parameterUnit":"m.s-1","parameterCategory":1,"la1":30.2991,"la2":30.254,"lo1":-89.0895,"lo2":-89.0444,"dy":0.0017,"dx":0.0017,"nx":28,"ny":28,"refTime":"2024-02-18T03:00:00:Z","depth":0,"parameterNumber":2,"parameterNumberName":"U-component_of_WINDS"},"data":[0,0,0,0,0,0,0,0,0,0,0,0,0,0,0,0,0,0,0,0,0,0,0,0,0,0,0,0,0,0,0,0,0,0,0,0,0,0,0,0,0,0,0,0,0,0,0,0,0,0,0,0,0,0,0,0,0,0,2.2555,2.2557,0,2.2662,2.2664,2.2665,2.2663,2.2662,2.266,2.2659,2.277,2.2774,2.2778,0,0,0,0,0,0,0,0,0,0,0,0,0,2.235,2.2354,2.2555,2.2557,2.2558,2.2662,2.2664,2.2665,2.2663,2.2662,2.266,2.2658,2.2768,2.2773,2.2779,0,0,0,0,0,0,0,0,0,0,0,0,0,2.2447,2.2355,2.2555,2.257,2.2572,2.2662,2.2664,2.2665,2.2664,2.2662,2.266,2.2658,2.2767,2.2773,2.2779,2.2862,0,0,2.2799,2.2802,0,0,0,0,0,0,0,0,2.2441,2.2454,2.2566,2.2569,2.2572,2.2647,2.2632,2.2731,2.2664,2.2629,2.2659,2.2656,2.2731,2.274,2.2765,2.2867,2.2872,2.28,2.2803,2.2806,2.2808,0,0,0,0,0,0,0,2.2434,2.245,2.2598,2.2568,2.2571,2.2571,2.2582,2.2651,2.2691,2.2632,2.2632,2.2645,2.2732,2.2759,2.2767,2.2873,2.2799,2.2805,2.2809,2.2812,2.3047,2.305,0,0,0,0,0,0,2.2425,2.2444,2.2594,2.2601,2.25,2.2577,2.2589,2.2625,2.269,2.2698,2.2646,2.2644,2.2749,2.276,2.2771,2.2871,2.2806,2.2812,2.2816,2.3045,2.3048,2.3051,0,0,0,0,0,0,2.242,2.2438,2.259,2.2523,2.2542,2.2582,2.2623,2.2628,2.2655,2.2701,2.2708,2.2666,2.2748,2.2762,2.2839,2.2875,2.2815,2.2821,2.3042,2.3046,2.3049,2.3071,0,0,0,0,0,0,2.2414,2.2436,2.2468,2.2523,2.2545,2.2656,2.2625,2.2632,2.2666,2.2664,2.2721,2.2729,2.2747,2.2829,2.2845,2.2882,2.2826,2.3039,2.3044,2.3048,2.3067,2.3075,2.3082,0,0,0,0,0,2.2407,2.2471,2.247,2.2488,2.2586,2.2658,2.267,2.2689,2.2669,2.2701,2.273,2.2727,2.2869,2.2837,2.2855,2.2895,2.3037,2.3043,2.3048,2.3064,2.3074,2.3081,0,0,0,0,0,0,2.2419,2.2478,2.2478,2.2561,2.2604,2.2657,2.2698,2.2699,2.2749,2.2745,2.2768,2.2781,2.2857,2.2884,2.2848,2.2977,2.295,2.296,2.2957,2.2966,2.2973,2.2964,2.2831,0,0,0,0,0,2.2431,2.2485,2.2533,2.2602,2.2624,2.2657,2.2689,2.27,2.2746,2.2764,2.28,2.2844,2.2899,2.2934,2.2987,2.3072,2.3084,2.3108,2.3115,2.3121,2.3128,2.3173,2.3184,2.3068,2.3068,2.3068,0,0,2.2457,2.2496,2.2528,2.2606,2.264,2.2695,2.2673,2.2732,2.2772,2.2774,2.2847,2.2875,2.2926,2.3007,2.3044,2.3032,2.3163,2.3128,2.3132,2.3136,2.318,2.3191,2.3201,2.3072,2.3071,2.3071,0,0,2.2532,2.2567,2.2627,2.2663,2.2715,2.2737,2.2752,2.2805,2.2823,2.2897,2.2899,2.2948,2.3042,2.3078,2.3109,2.3197,2.3195,2.3214,2.325,2.3294,2.3303,2.3311,2.3341,2.3351,2.3221,2.3221,2.3221,0,2.2557,2.2639,2.2658,2.2717,2.275,2.2754,2.2815,2.2849,2.2916,2.2939,2.2924,2.3041,2.3077,2.3165,2.3186,2.3212,2.3228,2.3206,2.33,2.3309,2.3316,2.3345,2.3356,2.3223,2.3223,2.3222,2.3222,0,2.2667,2.2723,2.2766,2.283,2.2869,2.2928,2.2957,2.2993,2.3001,2.3025,2.31,2.3142,2.3203,2.3225,2.3234,2.3315,2.3305,2.3295,2.3268,2.3329,2.3356,2.3367,2.3225,2.3225,2.3224,2.3224,0,0,2.2751,2.2825,2.284,2.2868,2.2927,2.2971,2.3031,2.309,2.312,2.3167,2.3217,2.3296,2.3286,2.3321,2.3334,2.3373,2.3438,2.3358,2.336,2.337,2.3528,2.3533,2.3546,2.3438,2.344,2.3442,2.3523,0,2.283,2.2935,2.2954,2.3046,2.3098,2.3102,2.3154,2.3196,2.3219,2.3267,2.3294,2.3348,2.3333,2.3354,2.3393,2.3422,2.347,2.3417,2.3484,2.3486,2.3468,2.356,2.3567,2.364,2.3534,2.3536,2.3537,0,2.2936,2.2984,2.308,2.3131,2.3153,2.32,2.3254,2.33,2.3348,2.3362,2.3401,2.3409,2.3471,2.3442,2.3527,2.3491,2.352,2.3538,2.3542,2.3547,2.3514,2.3566,2.3665,2.3675,2.3554,2.3553,2.3552,0,2.2984,2.3074,2.3143,2.3167,2.3229,2.3261,2.3288,2.3333,2.3367,2.3415,2.3437,2.3493,2.3523,2.3565,2.3588,2.3566,2.3671,2.3645,2.3684,2.3683,2.3704,2.3702,2.3807,2.3727,2.3727,2.3726,2.3726,0,2.3069,2.3128,2.3165,2.3207,2.3273,2.3295,2.3359,2.3386,2.3426,2.3473,2.3482,2.3526,2.3555,2.3603,2.3622,2.3689,2.3703,2.3715,2.3719,2.3714,2.3712,2.3731,2.3726,2.3729,2.3729,2.3728,2.3728,0,2.3134,2.3162,2.3237,2.3288,2.3303,2.3349,2.3393,2.3434,2.3458,2.3518,2.3533,2.357,2.3628,2.3655,2.3727,2.374,2.3814,2.3816,2.3798,2.3799,2.3836,2.3831,2.3955,2.3972,2.3882,2.3883,2.3884,0,2.3185,2.323,2.3286,2.3318,2.3346,2.3398,2.3432,2.3456,2.3491,2.3548,2.3582,2.364,2.3687,2.3778,2.3812,2.3866,2.3868,2.3908,2.3876,2.3869,2.3866,2.3862,2.3866,2.3913,2.3914,2.3914,2.3915,0,2.3272,2.3284,2.3332,2.3386,2.3427,2.347,2.3513,2.3539,2.357,2.3609,2.3668,2.3704,2.3777,2.3833,2.389,2.3918,2.3921,2.3925,2.3936,2.393,2.3916,2.3922,2.3811,2.3921,2.3921,2.392,2.392,2.392,2.333,2.337,2.3415,2.3469,2.3504,2.3544,2.3584,2.3613,2.3662,2.3722,2.3734,2.3795,2.3841,2.3918,2.3948,2.3996,2.3987,2.4005,2.4009,2.4012,2.4013,2.3911,2.4007,2.4007,2.4007,2.4007,2.4007,0,2.3416,2.3446,2.3495,2.3554,2.3597,2.3597,2.3644,2.3679,2.3733,2.3775,2.3821,2.3888,2.3943,2.3981,2.4037,2.4068,2.4071,2.4082,2.4079,2.4085,2.4019,2.4002,2.4079,2.4078,2.4078,2.4078,2.4078,2.4078,2.3465,2.3532,2.3548,2.3632,2.3661,2.3721,2.3748,2.3785,2.3818,2.3892,2.3937,2.3962,2.4002,2.4061,2.4111,2.4121,2.414,2.4151,2.416,2.4097,2.409,2.4082,2.4067,2.4156,2.4156,2.4222,2.4223,2.4223]},{"header":{"parameterUnit":"m.s-1","parameterCategory":1,"la1":30.2991,"la2":30.254,"lo1":-89.0895,"lo2":-89.0444,"dy":0.0017,"dx":0.0017,"nx":28,"ny":28,"refTime":"2024-02-18T03:00:00:Z","depth":0,"parameterNumber":3,"parameterNumberName":"V-component_of_WINDS"},"data":[0,0,0,0,0,0,0,0,0,0,0,0,0,0,0,0,0,0,0,0,0,0,0,0,0,0,0,0,0,0,0,0,0,0,0,0,0,0,0,0,0,0,0,0,0,0,0,0,0,0,0,0,0,0,0,0,0,0,1.6125,1.6125,0,1.6075,1.6074,1.6073,1.6053,1.6054,1.6054,1.6054,1.5997,1.5996,1.5994,0,0,0,0,0,0,0,0,0,0,0,0,0,1.6198,1.6197,1.6125,1.6125,1.6124,1.6075,1.6074,1.6073,1.6053,1.6054,1.6054,1.6054,1.5998,1.5996,1.5994,0,0,0,0,0,0,0,0,0,0,0,0,0,1.6159,1.6197,1.6125,1.6108,1.6106,1.6075,1.6074,1.6073,1.6053,1.6054,1.6054,1.6054,1.5998,1.5996,1.5994,1.5974,0,0,1.5986,1.5985,0,0,0,0,0,0,0,0,1.6161,1.6156,1.6111,1.6109,1.6107,1.6071,1.6079,1.604,1.6053,1.6073,1.6054,1.6054,1.6021,1.6017,1.6007,1.5971,1.5969,1.5986,1.5984,1.5983,1.5983,0,0,0,0,0,0,0,1.6164,1.6158,1.6105,1.6111,1.6108,1.6101,1.6096,1.6071,1.6046,1.6072,1.607,1.6065,1.602,1.6009,1.6005,1.5968,1.5986,1.5984,1.5982,1.5981,1.5911,1.591,0,0,0,0,0,0,1.617,1.6161,1.6107,1.6104,1.6135,1.61,1.6094,1.6082,1.6047,1.6042,1.6064,1.6064,1.6013,1.6008,1.6003,1.5976,1.5983,1.5981,1.598,1.5911,1.5911,1.591,0,0,0,0,0,0,1.6172,1.6166,1.6109,1.6132,1.6124,1.6098,1.6085,1.6081,1.607,1.6041,1.6036,1.6058,1.6013,1.6007,1.5981,1.5974,1.598,1.5978,1.5912,1.5911,1.591,1.5923,0,0,0,0,0,0,1.6174,1.6166,1.616,1.6132,1.6123,1.609,1.6085,1.608,1.6067,1.6065,1.6034,1.6029,1.6013,1.5985,1.5979,1.5971,1.5976,1.5912,1.5911,1.5911,1.5923,1.5923,1.5923,0,0,0,0,0,1.6177,1.6166,1.616,1.6154,1.6115,1.6089,1.6084,1.6067,1.6066,1.6059,1.604,1.603,1.5976,1.5982,1.5975,1.5966,1.5912,1.5911,1.5911,1.5923,1.5923,1.5923,0,0,0,0,0,0,1.6193,1.6162,1.6155,1.6135,1.6115,1.6086,1.6076,1.6067,1.6046,1.6045,1.6023,1.6016,1.5992,1.5976,1.5985,1.5944,1.5943,1.5941,1.5955,1.5954,1.5954,1.5958,1.5974,0,0,0,0,0,1.6194,1.6178,1.6151,1.6135,1.6125,1.6102,1.6091,1.6079,1.6057,1.6048,1.6027,1.6004,1.5982,1.5967,1.5945,1.5921,1.5912,1.591,1.591,1.591,1.5908,1.5891,1.5889,1.5907,1.5907,1.5907,0,0,1.6197,1.6177,1.6168,1.6138,1.6121,1.6102,1.6096,1.6076,1.6061,1.6044,1.6019,1.6003,1.5975,1.595,1.5937,1.5936,1.5901,1.5909,1.5909,1.5907,1.589,1.5888,1.5887,1.5907,1.5907,1.5907,0,0,1.6191,1.6176,1.616,1.6143,1.6118,1.6103,1.6099,1.6071,1.6059,1.6034,1.602,1.6001,1.5963,1.5944,1.5929,1.5913,1.5903,1.5906,1.5905,1.5889,1.5887,1.5886,1.5878,1.5876,1.5904,1.5904,1.5904,0,1.6196,1.617,1.6153,1.6134,1.612,1.6104,1.6086,1.607,1.6039,1.6028,1.6028,1.5978,1.5959,1.5927,1.5923,1.5913,1.5905,1.591,1.5889,1.5888,1.5886,1.5878,1.5875,1.5905,1.5905,1.5905,1.5905,0,1.6176,1.6158,1.6148,1.6118,1.6103,1.6085,1.6063,1.6049,1.6038,1.6022,1.5994,1.597,1.5942,1.5933,1.5922,1.5899,1.5898,1.5894,1.5892,1.5885,1.5877,1.5874,1.5906,1.5905,1.5905,1.5905,0,0,1.6181,1.6141,1.6138,1.6123,1.6093,1.6077,1.6057,1.603,1.6018,1.5996,1.5976,1.5944,1.5939,1.5922,1.5908,1.5894,1.588,1.589,1.5889,1.5887,1.5849,1.5852,1.5849,1.5873,1.5872,1.5872,1.5851,0,1.617,1.6135,1.6118,1.609,1.6071,1.6055,1.6036,1.6015,1.5998,1.5978,1.5959,1.5935,1.5931,1.5921,1.5906,1.5885,1.5871,1.5886,1.5852,1.5851,1.5858,1.5845,1.5849,1.5831,1.5848,1.5847,1.5847,0,1.6154,1.6132,1.6102,1.6073,1.6064,1.6048,1.6021,1.6002,1.5976,1.5965,1.5945,1.5931,1.5906,1.5907,1.587,1.5881,1.5865,1.5852,1.5851,1.5846,1.5848,1.5839,1.5825,1.5821,1.5842,1.5843,1.5843,0,1.6158,1.6121,1.6098,1.6086,1.6051,1.604,1.6025,1.5999,1.5983,1.5958,1.5947,1.592,1.5904,1.5882,1.5859,1.5863,1.5824,1.5824,1.5812,1.5812,1.5804,1.5804,1.5786,1.5796,1.5796,1.5797,1.5797,0,1.6147,1.6129,1.6099,1.6085,1.6063,1.6042,1.602,1.6003,1.598,1.5959,1.5943,1.5924,1.5897,1.5873,1.5855,1.5826,1.582,1.5808,1.5803,1.5809,1.581,1.5798,1.5798,1.5796,1.5796,1.5796,1.5796,0,1.6148,1.6128,1.6101,1.607,1.6061,1.6046,1.6018,1.6002,1.5984,1.5959,1.5951,1.5923,1.5894,1.587,1.5832,1.582,1.5789,1.5784,1.5798,1.5796,1.5784,1.5785,1.5756,1.5749,1.5766,1.5766,1.5766,0,1.6142,1.6128,1.6095,1.6081,1.6066,1.6044,1.6028,1.6005,1.5989,1.5956,1.5943,1.5913,1.5889,1.5843,1.5817,1.5787,1.578,1.5772,1.5775,1.578,1.5777,1.5778,1.5775,1.5771,1.5771,1.5771,1.5771,0,1.6134,1.6124,1.6102,1.6076,1.6057,1.6035,1.6012,1.6001,1.5974,1.5955,1.5926,1.5907,1.5868,1.5837,1.5804,1.5785,1.5772,1.577,1.5765,1.577,1.5778,1.5772,1.5796,1.5771,1.5771,1.5771,1.5771,1.5771,1.613,1.6116,1.609,1.6065,1.6045,1.6024,1.6006,1.5986,1.5962,1.593,1.5917,1.5887,1.5857,1.5812,1.5792,1.5766,1.5764,1.5758,1.5756,1.5755,1.5754,1.5784,1.576,1.576,1.576,1.576,1.576,0,1.6119,1.6101,1.6079,1.6047,1.6027,1.6018,1.5992,1.5974,1.5949,1.5923,1.5899,1.5863,1.5833,1.5804,1.5772,1.5756,1.5749,1.5748,1.5748,1.5743,1.5759,1.5766,1.5754,1.5754,1.5754,1.5754,1.5754,1.5754,1.6111,1.6085,1.6072,1.6035,1.6016,1.5988,1.5973,1.5952,1.5931,1.5893,1.5868,1.585,1.5822,1.5787,1.5757,1.5749,1.5737,1.5737,1.5727,1.5742,1.5743,1.5744,1.575,1.5735,1.5735,1.5714,1.5713,1.5713]}]]